Weather Roundup
Issued by NWS

Home | Current Version | Previous Version | Graphics & Text | Print | Product List | Glossary Off
Versions: 1 2 3 4 5 6 7 8 9 10 11 12 13 14 15 16 17 18 19 20 21 22 23 24 25 26 27 28 29 30 31 32 33 34 35 36 37 38 39 40 41 42 43 44 45 46 47 48 49 50

000
NZUS93 KARX 200310
HRRWXR

CURRENT HOURLY OBSERVATIONS ACROSS
MUCH OF THE UPPER MISSISSIPPI VALLEY
NATIONAL WEATHER SERVICE LA CROSSE WI
1000 PM CDT TUE AUG 19 2014


...SOUTHEAST MINNESOTA...


CITY           SKY/WX    TMP DP  RH WIND       PRES   REMARKS
ROCHESTER      MOCLDY    68  64  87 W6        29.81R
ROCHESTER/MAYO CLOUDY    71  62  71 CALM      29.80S
WINONA         MOCLDY    70  64  83 CALM      29.78R
AUSTIN         CLEAR     68  64  88 CALM      29.81R
ALBERT LEA     CLEAR     68  66  94 CALM      29.80S
DODGE CENTER   PTCLDY    66  64  94 SW7       29.81R
PRESTON        CLEAR     70  66  89 W3        29.81S
OWATONNA       PTCLDY    66  64  94 CALM      29.80S
FARIBAULT      PTCLDY    70  63  78 CALM      29.80R
$$

...ELSEWHERE IN MINNESOTA...


CITY           SKY/WX    TMP DP  RH WIND       PRES   REMARKS
MINNEAPOLIS    PTCLDY    73  64  73 CALM      29.78R
INTNL FALLS    CLEAR     54  54 100 CALM      29.81R
DULUTH         CLOUDY    65  60  84 N5        29.81R
RED WING       CLEAR     68  64  88 N3        29.77R
REDWOOD FALLS  CLEAR     73  65  75 N3        29.79R
MANKATO        CLEAR     72  63  73 N3        29.79S
WORTHINGTON    CLEAR     68  10  10 SW3       29.84R
FAIRMONT       CLEAR     70  63  78 CALM      29.81S
$$

...SOUTHWEST WISCONSIN...


CITY           SKY/WX    TMP DP  RH WIND       PRES   REMARKS
LA CROSSE      PTCLDY    71  66  84 CALM      29.77R
PRAIRIE DU CHI CLEAR     68  64  85 CALM      29.79R
BOSCOBEL       CLEAR     67  64  90 CALM      29.79R
LONE ROCK      PTCLDY    71  65  81 W5        29.78R
PLATTEVILLE    CLEAR     69  64  83 W5        29.81R
FORT MC COY    PTCLDY    64  62  94 CALM      29.79R
CAMP DOUGLAS   PTCLDY    63  63 100 SW2       29.78R
VIROQUA        FAIR      66  65  97 CALM      29.81R
WIS DELLS      CLEAR     66  61  84 CALM      29.78R
$$

...ELSEWHERE IN WISCONSIN...


CITY           SKY/WX    TMP DP  RH WIND       PRES   REMARKS
MILWAUKEE      MOCLDY    72  65  78 CALM      29.76R
MADISON        PTCLDY    67  63  87 CALM      29.77R
GREEN BAY      MOCLDY    65  64  97 CALM      29.73R
EAU CLAIRE     CLOUDY    67  65  93 W3        29.77R
BLACK RVR FLS  MOCLDY    67  67 100 CALM      29.77S
MEDFORD        CLOUDY    63  62  98 CALM      29.79S
WAUSAU         CLEAR     65  63  93 NW5       29.76R
WIS RAPIDS     MOCLDY    66  63  90 NW3       29.78S
MARSHFIELD     PTCLDY    64  62  93 CALM      29.78R
RICE LAKE      CLOUDY    66  63  90 CALM      29.81S
$$

...NORTHEAST IOWA...


CITY           SKY/WX    TMP DP  RH WIND       PRES   REMARKS
WATERLOO       PTCLDY    71  66  84 SW5       29.80R
DUBUQUE        CLEAR     67  63  87 W5        29.81R
DECORAH        PTCLDY    70  64  83 CALM      29.80R
MASON CITY     PTCLDY    67  65  93 SW5       29.83R
CHARLES CITY   PTCLDY    68  66  94 CALM      29.81S
OELWEIN        CLEAR     68  64  88 CALM      29.82R
$$

...ELSEWHERE IN IOWA...


CITY           SKY/WX    TMP DP  RH WIND       PRES   REMARKS
DES MOINES     CLEAR     78  65  63 CALM      29.81R
IOWA CITY      CLEAR     69  65  86 W5        29.82R
FORT DODGE     CLEAR     66  63  88 CALM      29.83S
MARSHALLTOWN   CLEAR     69  65  86 SW5       29.82R
CEDAR RAPIDS   CLEAR     70  66  87 W5        29.81R
$$

...NORTHERN ILLINOIS...


CITY           SKY/WX    TMP DP  RH WIND       PRES   REMARKS
CHICAGO-OHARE  PTCLDY    74  64  71 NW7       29.76R
DUPAGE         CLEAR     72  64  76 NW6       29.77R
CHICAGO-MIDWAY PTCLDY    80  66  62 W6        29.76R
MOLINE         CLEAR     71  64  78 W3        29.80R
ROCKFORD       CLEAR     70  62  76 W3        29.79R
STERLING       CLEAR     70  63  78 NW3       29.79S
PEORIA         CLEAR     75  69  81 W3        29.81R
$$

NOTE: "FAIR" INDICATES FEW OR NO CLOUDS BELOW 12,000 FEET WITH NO
SIGNIFICANT WEATHER AND/OR OBSTRUCTIONS TO VISIBILITY. WIND
SPEEDS ARE IN MILES-PER-HOUR.



USA.gov is the U.S. government's official web portal to all federal, state and local government web resources and services.